TAM3124 SBSP-SBLO

Flight info

Callsign TAM3124
Flight time 0h 46m
Altitude 36000
Route ASETA UM415 EGEVA UZ58 UMPIG
Aircraft A319/M-SDE3FGHIRWY/LB1

Departure

Time 2026-04-26 21:26
Airport Congonhas–Deputado Freitas Nobre Airport (SBSP)

Arrival

Time 2026-04-26 22:12
Airport Governor José Richa Airport (SBLO)
Time Latitude Longitude Altitude Speed Heading
2026-04-26 20:47 -23.62455 -46.66006 2597 ft 0 kts 237°
2026-04-26 21:08 -23.62452 -46.66002 2597 ft 2 kts 238°
2026-04-26 21:08 -23.62444 -46.65987 2598 ft 2 kts 224°
2026-04-26 21:09 -23.62431 -46.65979 2597 ft 2 kts 193°
2026-04-26 21:09 -23.62415 -46.65979 2597 ft 2 kts 163°
2026-04-26 21:09 -23.62402 -46.65987 2597 ft 2 kts 142°
2026-04-26 21:09 -23.62391 -46.65995 2596 ft 1 kts 149°
2026-04-26 21:10 -23.62389 -46.65997 2596 ft 0 kts 148°
2026-04-26 21:11 -23.62389 -46.65996 2596 ft 1 kts 149°
2026-04-26 21:12 -23.62406 -46.65985 2597 ft 2 kts 147°
2026-04-26 21:12 -23.62410 -46.65982 2597 ft 0 kts 148°
2026-04-26 21:14 -23.62434 -46.65949 2598 ft 9 kts 119°
2026-04-26 21:14 -23.62491 -46.65876 2601 ft 15 kts 147°
2026-04-26 21:15 -23.62592 -46.65806 2604 ft 16 kts 147°
2026-04-26 21:15 -23.62675 -46.65748 2608 ft 12 kts 147°
2026-04-26 21:15 -23.62749 -46.65698 2611 ft 11 kts 147°
2026-04-26 21:15 -23.62812 -46.65652 2614 ft 10 kts 147°
2026-04-26 21:16 -23.62871 -46.65611 2615 ft 9 kts 147°
2026-04-26 21:16 -23.62930 -46.65570 2617 ft 10 kts 148°
2026-04-26 21:16 -23.62993 -46.65527 2619 ft 10 kts 151°
2026-04-26 21:16 -23.63070 -46.65509 2620 ft 12 kts 166°
2026-04-26 21:17 -23.63127 -46.65471 2621 ft 8 kts 147°
2026-04-26 21:17 -23.63172 -46.65440 2621 ft 7 kts 147°
2026-04-26 21:17 -23.63215 -46.65409 2621 ft 7 kts 147°
2026-04-26 21:17 -23.63265 -46.65373 2620 ft 12 kts 147°
2026-04-26 21:18 -23.63362 -46.65306 2619 ft 19 kts 148°
2026-04-26 21:18 -23.63468 -46.65233 2617 ft 7 kts 146°
2026-04-26 21:18 -23.63473 -46.65229 2617 ft 0 kts 146°
2026-04-26 21:24 -23.63476 -46.65227 2617 ft 1 kts 146°
2026-04-26 21:24 -23.63505 -46.65183 2616 ft 10 kts 91°
2026-04-26 21:24 -23.63479 -46.65115 2616 ft 8 kts 60°
2026-04-26 21:25 -23.63444 -46.65100 2618 ft 4 kts 326°
2026-04-26 21:25 -23.63432 -46.65110 2619 ft 0 kts 326°
2026-04-26 21:25 -23.63340 -46.65177 2620 ft 49 kts 327°
2026-04-26 21:25 -23.62838 -46.65528 2617 ft 118 kts 326°
2026-04-26 21:26 -23.62006 -46.66110 2844 ft 151 kts 327°
2026-04-26 21:26 -23.61140 -46.66717 3485 ft 150 kts 326°
2026-04-26 21:26 -23.60336 -46.67391 4056 ft 149 kts 304°
2026-04-26 21:26 -23.60113 -46.68533 4353 ft 164 kts 274°
2026-04-26 21:27 -23.60116 -46.69836 4620 ft 180 kts 274°
2026-04-26 21:27 -23.60071 -46.71269 4875 ft 200 kts 276°
2026-04-26 21:27 -23.59976 -46.72834 5243 ft 218 kts 277°
2026-04-26 21:27 -23.59889 -46.74564 5670 ft 236 kts 272°
2026-04-26 21:28 -23.59994 -46.76401 6095 ft 256 kts 266°
2026-04-26 21:28 -23.60247 -46.78381 6620 ft 271 kts 264°
2026-04-26 21:28 -23.60526 -46.80405 7317 ft 272 kts 264°
2026-04-26 21:28 -23.60807 -46.82451 7783 ft 272 kts 264°
2026-04-26 21:29 -23.61086 -46.84528 8261 ft 279 kts 264°
2026-04-26 21:29 -23.61317 -46.86595 9194 ft 278 kts 267°
2026-04-26 21:29 -23.61418 -46.88678 10129 ft 277 kts 269°
2026-04-26 21:29 -23.61488 -46.90774 10817 ft 286 kts 269°
2026-04-26 21:30 -23.61557 -46.93023 11253 ft 303 kts 269°
2026-04-26 21:30 -23.61631 -46.95370 11690 ft 318 kts 269°
2026-04-26 21:30 -23.61707 -46.97810 12354 ft 324 kts 269°
2026-04-26 21:30 -23.61784 -47.00285 13076 ft 327 kts 269°
2026-04-26 21:31 -23.61861 -47.02750 13766 ft 330 kts 270°
2026-04-26 21:31 -23.61935 -47.05249 14447 ft 333 kts 269°
2026-04-26 21:31 -23.62010 -47.07777 15121 ft 335 kts 269°
2026-04-26 21:31 -23.62087 -47.10318 15783 ft 338 kts 269°
2026-04-26 21:32 -23.62162 -47.12870 16435 ft 340 kts 269°
2026-04-26 21:32 -23.62240 -47.15467 17080 ft 343 kts 269°
2026-04-26 21:32 -23.62317 -47.18063 17696 ft 345 kts 269°
2026-04-26 21:32 -23.62346 -47.20685 18297 ft 347 kts 274°
2026-04-26 21:33 -23.62040 -47.23273 18875 ft 348 kts 282°
2026-04-26 21:33 -23.61350 -47.25820 19451 ft 350 kts 290°
2026-04-26 21:33 -23.60432 -47.28265 20013 ft 352 kts 292°
2026-04-26 21:33 -23.59476 -47.30714 20537 ft 354 kts 292°
2026-04-26 21:34 -23.58500 -47.33205 21063 ft 356 kts 292°
2026-04-26 21:34 -23.57529 -47.35690 21557 ft 357 kts 292°
2026-04-26 21:34 -23.56561 -47.38168 22041 ft 359 kts 292°
2026-04-26 21:34 -23.55576 -47.40697 22526 ft 361 kts 292°
2026-04-26 21:35 -23.54590 -47.43224 23013 ft 362 kts 292°
2026-04-26 21:35 -23.53606 -47.45747 23453 ft 365 kts 291°
2026-04-26 21:35 -23.52675 -47.48336 23906 ft 367 kts 289°
2026-04-26 21:35 -23.51875 -47.50975 24347 ft 370 kts 287°
2026-04-26 21:36 -23.51111 -47.53688 24778 ft 373 kts 286°
2026-04-26 21:36 -23.50360 -47.56363 25193 ft 375 kts 286°
2026-04-26 21:36 -23.49593 -47.59085 25621 ft 377 kts 286°
2026-04-26 21:36 -23.48823 -47.61827 26062 ft 379 kts 286°
2026-04-26 21:37 -23.48040 -47.64611 26479 ft 382 kts 286°
2026-04-26 21:37 -23.47261 -47.67379 26921 ft 384 kts 287°
2026-04-26 21:37 -23.46477 -47.70177 27342 ft 387 kts 287°
2026-04-26 21:37 -23.45672 -47.72987 27765 ft 389 kts 288°
2026-04-26 21:38 -23.44740 -47.75791 28199 ft 392 kts 290°
2026-04-26 21:38 -23.43678 -47.78517 28608 ft 395 kts 293°
2026-04-26 21:38 -23.42449 -47.81249 28997 ft 398 kts 296°
2026-04-26 21:38 -23.41159 -47.83906 29394 ft 401 kts 296°
2026-04-26 21:39 -23.39854 -47.86581 29783 ft 404 kts 296°
2026-04-26 21:39 -23.38521 -47.89307 30175 ft 406 kts 297°
2026-04-26 21:39 -23.37186 -47.92032 30588 ft 408 kts 297°
2026-04-26 21:39 -23.35861 -47.94736 30959 ft 411 kts 297°
2026-04-26 21:40 -23.34492 -47.97524 31343 ft 413 kts 297°
2026-04-26 21:40 -23.33146 -48.00265 31749 ft 413 kts 297°
2026-04-26 21:40 -23.31779 -48.03046 32274 ft 411 kts 297°
2026-04-26 21:40 -23.30443 -48.05780 32795 ft 409 kts 296°
2026-04-26 21:41 -23.29180 -48.08628 33326 ft 407 kts 294°
2026-04-26 21:41 -23.28070 -48.11487 33858 ft 405 kts 291°
2026-04-26 21:41 -23.27102 -48.14367 34381 ft 403 kts 289°
2026-04-26 21:41 -23.26201 -48.17248 34833 ft 403 kts 289°
2026-04-26 21:42 -23.25292 -48.20143 35185 ft 404 kts 289°
2026-04-26 21:42 -23.24387 -48.23034 35514 ft 405 kts 289°
2026-04-26 21:42 -23.23482 -48.25923 35813 ft 406 kts 289°
2026-04-26 21:42 -23.22557 -48.28885 35980 ft 408 kts 289°
2026-04-26 21:43 -23.20732 -48.34719 35993 ft 409 kts 289°
2026-04-26 21:43 -23.18892 -48.40573 35998 ft 408 kts 289°
2026-04-26 21:44 -23.17061 -48.46409 36005 ft 409 kts 288°
2026-04-26 21:44 -23.15644 -48.52374 36015 ft 410 kts 282°
2026-04-26 21:45 -23.14889 -48.58529 36017 ft 412 kts 276°
2026-04-26 21:45 -23.14818 -48.64785 36018 ft 413 kts 270°
2026-04-26 21:46 -23.15299 -48.71064 36019 ft 414 kts 268°
2026-04-26 21:46 -23.15833 -48.77314 36014 ft 414 kts 268°
2026-04-26 21:47 -23.16363 -48.83550 36010 ft 414 kts 268°
2026-04-26 21:47 -23.16888 -48.89734 36009 ft 415 kts 268°
2026-04-26 21:48 -23.17418 -48.96012 36003 ft 415 kts 268°
2026-04-26 21:48 -23.17938 -49.02214 35993 ft 414 kts 268°
2026-04-26 21:49 -23.18457 -49.08454 35680 ft 413 kts 268°
2026-04-26 21:49 -23.18715 -49.11571 34740 ft 417 kts 268°
2026-04-26 21:49 -23.18975 -49.14728 33631 ft 423 kts 268°
2026-04-26 21:50 -23.19242 -49.17860 32863 ft 422 kts 267°
2026-04-26 21:50 -23.19534 -49.21026 32187 ft 420 kts 266°
2026-04-26 21:50 -23.19826 -49.24155 31521 ft 418 kts 266°
2026-04-26 21:50 -23.20117 -49.27317 30841 ft 416 kts 266°
2026-04-26 21:51 -23.20397 -49.30386 30388 ft 410 kts 266°
2026-04-26 21:51 -23.20676 -49.33465 29983 ft 406 kts 266°
2026-04-26 21:51 -23.20952 -49.36512 29545 ft 404 kts 266°
2026-04-26 21:51 -23.21221 -49.39532 29104 ft 400 kts 266°
2026-04-26 21:52 -23.21458 -49.42506 28669 ft 397 kts 267°
2026-04-26 21:52 -23.21682 -49.45487 28246 ft 393 kts 267°
2026-04-26 21:52 -23.21902 -49.48444 27802 ft 390 kts 267°
2026-04-26 21:52 -23.22119 -49.51342 27340 ft 387 kts 267°
2026-04-26 21:53 -23.22336 -49.54276 26862 ft 384 kts 267°
2026-04-26 21:53 -23.22547 -49.57135 26400 ft 380 kts 267°
2026-04-26 21:53 -23.22759 -49.60000 25940 ft 376 kts 267°
2026-04-26 21:53 -23.22963 -49.62786 25486 ft 373 kts 267°
2026-04-26 21:54 -23.23171 -49.65628 25022 ft 370 kts 268°
2026-04-26 21:54 -23.23373 -49.68377 24582 ft 367 kts 268°
2026-04-26 21:54 -23.23577 -49.71162 24106 ft 364 kts 267°
2026-04-26 21:54 -23.23775 -49.73860 23659 ft 360 kts 267°
2026-04-26 21:55 -23.23992 -49.76589 23230 ft 356 kts 267°
2026-04-26 21:55 -23.24209 -49.79266 22799 ft 353 kts 267°
2026-04-26 21:55 -23.24421 -49.81906 22368 ft 350 kts 267°
2026-04-26 21:55 -23.24630 -49.84539 21953 ft 347 kts 267°
2026-04-26 21:56 -23.24836 -49.87152 21532 ft 345 kts 267°
2026-04-26 21:56 -23.25038 -49.89726 21102 ft 344 kts 267°
2026-04-26 21:56 -23.25242 -49.92322 20656 ft 343 kts 267°
2026-04-26 21:56 -23.25444 -49.94901 20193 ft 343 kts 267°
2026-04-26 21:57 -23.25645 -49.97487 19735 ft 343 kts 266°
2026-04-26 21:57 -23.25844 -50.00049 19270 ft 343 kts 266°
2026-04-26 21:57 -23.26046 -50.02640 18789 ft 343 kts 266°
2026-04-26 21:57 -23.26244 -50.05217 18328 ft 342 kts 266°
2026-04-26 21:58 -23.26442 -50.07774 17863 ft 342 kts 266°
2026-04-26 21:58 -23.26640 -50.10331 17408 ft 341 kts 266°
2026-04-26 21:58 -23.26838 -50.12891 16951 ft 340 kts 266°
2026-04-26 21:58 -23.27035 -50.15456 16506 ft 339 kts 266°
2026-04-26 21:59 -23.27231 -50.18003 16039 ft 338 kts 266°
2026-04-26 21:59 -23.27422 -50.20513 15576 ft 338 kts 266°
2026-04-26 21:59 -23.27615 -50.23056 15100 ft 338 kts 266°
2026-04-26 21:59 -23.27808 -50.25605 14612 ft 338 kts 266°
2026-04-26 22:00 -23.27999 -50.28156 14141 ft 337 kts 266°
2026-04-26 22:00 -23.28188 -50.30660 13679 ft 337 kts 266°
2026-04-26 22:00 -23.28380 -50.33198 13210 ft 336 kts 266°
2026-04-26 22:00 -23.28572 -50.35729 12745 ft 335 kts 266°
2026-04-26 22:01 -23.28823 -50.38232 12316 ft 334 kts 263°
2026-04-26 22:01 -23.29241 -50.40723 11880 ft 333 kts 259°
2026-04-26 22:01 -23.29787 -50.43176 11439 ft 331 kts 258°
2026-04-26 22:01 -23.30347 -50.45605 11008 ft 330 kts 258°
2026-04-26 22:02 -23.30900 -50.48006 10572 ft 328 kts 258°
2026-04-26 22:02 -23.31453 -50.50408 10186 ft 323 kts 258°
2026-04-26 22:02 -23.31973 -50.52660 10089 ft 294 kts 258°
2026-04-26 22:02 -23.32451 -50.54735 10021 ft 272 kts 258°
2026-04-26 22:03 -23.32903 -50.56707 9878 ft 266 kts 259°
2026-04-26 22:03 -23.33340 -50.58630 9540 ft 263 kts 259°
2026-04-26 22:03 -23.33777 -50.60554 9222 ft 259 kts 259°
2026-04-26 22:03 -23.34211 -50.62471 8900 ft 259 kts 259°
2026-04-26 22:04 -23.34641 -50.64373 8565 ft 259 kts 259°
2026-04-26 22:04 -23.35076 -50.66294 8227 ft 261 kts 259°
2026-04-26 22:04 -23.35516 -50.68244 7899 ft 263 kts 259°
2026-04-26 22:04 -23.35953 -50.70168 7577 ft 265 kts 259°
2026-04-26 22:05 -23.36398 -50.72129 7251 ft 265 kts 259°
2026-04-26 22:05 -23.36836 -50.74061 6929 ft 264 kts 259°
2026-04-26 22:05 -23.37279 -50.76012 6604 ft 264 kts 259°
2026-04-26 22:05 -23.37721 -50.77953 6287 ft 263 kts 259°
2026-04-26 22:06 -23.38159 -50.79884 5975 ft 263 kts 258°
2026-04-26 22:06 -23.38597 -50.81821 5654 ft 263 kts 258°
2026-04-26 22:06 -23.38975 -50.83749 5342 ft 261 kts 263°
2026-04-26 22:06 -23.39165 -50.85724 5014 ft 255 kts 269°
2026-04-26 22:07 -23.39224 -50.87594 4719 ft 242 kts 270°
2026-04-26 22:07 -23.39266 -50.89370 4605 ft 226 kts 270°
2026-04-26 22:07 -23.39304 -50.91048 4554 ft 215 kts 270°
2026-04-26 22:07 -23.39342 -50.92643 4509 ft 205 kts 270°
2026-04-26 22:08 -23.39374 -50.94143 4467 ft 195 kts 273°
2026-04-26 22:08 -23.39193 -50.95593 4421 ft 187 kts 286°
2026-04-26 22:08 -23.38781 -50.96938 4439 ft 182 kts 290°
2026-04-26 22:08 -23.38341 -50.98229 4333 ft 171 kts 290°
2026-04-26 22:09 -23.37940 -50.99398 4178 ft 156 kts 290°
2026-04-26 22:09 -23.37573 -51.00472 4065 ft 149 kts 290°
2026-04-26 22:09 -23.37219 -51.01517 3879 ft 149 kts 290°
2026-04-26 22:09 -23.36867 -51.02561 3652 ft 144 kts 289°
2026-04-26 22:10 -23.36532 -51.03557 3445 ft 138 kts 289°
2026-04-26 22:10 -23.36202 -51.04542 3255 ft 137 kts 289°
2026-04-26 22:10 -23.35874 -51.05523 3070 ft 137 kts 289°
2026-04-26 22:10 -23.35552 -51.06488 2887 ft 136 kts 289°
2026-04-26 22:11 -23.35225 -51.07461 2704 ft 136 kts 289°
2026-04-26 22:11 -23.34902 -51.08425 2526 ft 136 kts 288°
2026-04-26 22:11 -23.34580 -51.09399 2342 ft 135 kts 289°
2026-04-26 22:11 -23.34246 -51.10351 2155 ft 135 kts 287°
2026-04-26 22:12 -23.33928 -51.11309 1973 ft 134 kts 287°
2026-04-26 22:12 -23.33612 -51.12255 1845 ft 133 kts 288°
2026-04-26 22:12 -23.33329 -51.13141 1855 ft 101 kts 291°
2026-04-26 22:12 -23.33173 -51.13589 1865 ft 42 kts 294°
2026-04-26 22:13 -23.33111 -51.13707 1867 ft 7 kts 343°
2026-04-26 22:13 -23.33061 -51.13699 1867 ft 7 kts 20°
2026-04-26 22:13 -23.33029 -51.13687 1867 ft 0 kts 353°
2026-04-26 22:13 -23.33027 -51.13692 1867 ft 1 kts 282°
2026-04-26 22:14 -23.33014 -51.13731 1867 ft 8 kts 288°
2026-04-26 22:14 -23.32998 -51.13779 1868 ft 3 kts 293°
2026-04-26 22:14 -23.32981 -51.13785 1868 ft 3 kts 24°
2026-04-26 22:14 -23.32961 -51.13776 1868 ft 3 kts 20°
2026-04-26 22:15 -23.32951 -51.13772 1868 ft 0 kts 20°
2026-04-26 22:15 -23.32935 -51.13766 1868 ft 2 kts 19°
2026-04-26 22:15 -23.32932 -51.13765 1868 ft 0 kts 19°